Date String (YYYY-MM-DD hh:mm:ss) UTC,Instrument flags,Ambient pressure (hPa),Sample flow (lpm),Bypass flow (lpm),Sample temperature (°C),Ambient temperature (°C),ASC tube jacket temperature (°C),LED temperature (°C),Box temperature (°C),Sample RH (%),Span deviation,Mass concentration (μg/m³),Mass concentration (μg/m³),Mass concentration (μg/m³)
DateTimeUTC,F1_M11,P_M11,Q1_M11,Q2_M11,T1_M11,T2_M11,T3_M11,T4_M11,T5_M11,U1_M11,ZSPAN_M11,X0_M11,X2_M11,X1_M11
2022-10-29 23:00:00,,0829.3,5.02,0.00,28.4,27.0,00.0,37.1,30.2,05.7,0000.0,0007.10,0003.44,0003.13
2022-10-29 23:01:00,,0829.3,4.98,0.00,28.4,27.0,00.0,37.1,30.2,05.8,0000.0,0006.62,0003.43,0003.14
2022-10-29 23:02:00,,0829.3,5.02,0.00,28.4,27.1,00.0,37.1,30.2,05.8,0000.0,0006.58,0003.43,0003.13
2022-10-29 23:03:00,,0829.2,4.99,0.00,28.4,27.1,00.0,37.1,30.2,05.8,0000.0,0006.56,0003.43,0003.13
2022-10-29 23:04:00,,0829.2,5.01,0.00,28.4,27.1,00.0,37.1,30.2,05.8,0000.0,0007.17,0003.42,0003.13
2022-10-29 23:05:00,,0829.3,5.01,0.00,28.4,27.1,00.0,37.1,30.2,05.8,0000.0,0007.59,0003.41,0003.12
2022-10-29 23:06:00,,0829.3,5.00,0.00,28.4,27.1,00.0,37.1,30.2,05.8,0000.0,0007.54,0003.39,0003.09
2022-10-29 23:07:00,,0829.2,4.98,0.00,28.4,27.1,00.0,37.1,30.2,05.7,0000.0,0007.06,0003.38,0003.06
2022-10-29 23:08:00,,0829.2,5.00,0.00,28.4,27.1,00.0,37.1,30.2,05.6,0000.0,0008.00,0003.39,0003.03
2022-10-29 23:09:00,,0829.3,5.00,0.00,28.4,27.1,00.0,37.1,30.3,05.6,0000.0,0008.24,0003.38,0002.99
2022-10-29 23:10:00,,0829.3,5.00,0.00,28.4,27.1,00.0,37.1,30.3,05.7,0000.0,0008.21,0003.36,0002.99
2022-10-29 23:11:00,,0829.3,5.00,0.00,28.4,27.1,00.0,37.1,30.3,05.7,0000.0,0008.46,0003.35,0003.00
2022-10-29 23:12:00,,0829.2,5.00,0.00,28.4,27.1,00.0,37.1,30.3,05.8,0000.0,0008.58,0003.37,0002.99
2022-10-29 23:13:00,,0829.3,5.01,0.00,28.4,27.1,00.0,37.1,30.3,05.7,0000.0,0008.52,0003.34,0002.98
2022-10-29 23:14:00,,0829.3,4.98,0.00,28.4,27.1,00.0,37.1,30.3,05.8,0000.0,0008.46,0003.31,0002.98
2022-10-29 23:15:00,,0829.2,5.00,0.00,28.4,27.1,00.0,37.2,30.3,05.8,0000.0,0008.32,0003.33,0002.98
2022-10-29 23:16:00,,0829.2,5.00,0.00,28.4,27.2,00.0,37.2,30.3,05.8,0000.0,0008.10,0003.34,0002.99
2022-10-29 23:17:00,,0829.2,5.00,0.00,28.5,27.2,00.0,37.2,30.3,05.7,0000.0,0008.15,0003.33,0002.99
2022-10-29 23:18:00,,0829.2,5.00,0.00,28.5,27.2,00.0,37.2,30.3,05.7,0000.0,0008.15,0003.32,0002.98
2022-10-29 23:19:00,,0829.2,4.98,0.00,28.5,27.2,00.0,37.2,30.3,05.7,0000.0,0007.83,0003.30,0002.98
2022-10-29 23:20:00,,0829.3,5.02,0.00,28.5,27.2,00.0,37.2,30.3,05.7,0000.0,0007.99,0003.29,0002.99
2022-10-29 23:21:00,,0829.3,5.00,0.00,28.5,27.2,00.0,37.2,30.3,05.7,0000.0,0008.08,0003.31,0003.02
2022-10-29 23:22:00,,0829.3,4.97,0.00,28.5,27.2,00.0,37.2,30.3,05.7,0000.0,0007.91,0003.30,0003.01
2022-10-29 23:23:00,,0829.2,5.02,0.00,28.5,27.2,00.0,37.3,30.3,05.7,0000.0,0007.74,0003.30,0003.00
2022-10-29 23:24:00,,0829.3,4.98,0.00,28.5,27.2,00.0,37.3,30.4,05.7,0000.0,0007.82,0003.33,0002.99
2022-10-29 23:25:00,,0829.3,5.00,0.00,28.5,27.2,00.0,37.3,30.4,05.8,0000.0,0007.82,0003.32,0002.98
2022-10-29 23:26:00,,0829.2,5.01,0.00,28.5,27.2,00.0,37.3,30.4,05.8,0000.0,0007.85,0003.33,0002.98
2022-10-29 23:27:00,,0829.2,5.01,0.00,28.6,27.2,00.0,37.3,30.4,05.8,0000.0,0007.60,0003.32,0002.99
2022-10-29 23:28:00,,0829.2,5.00,0.00,28.6,27.2,00.0,37.3,30.4,05.8,0000.0,0007.50,0003.32,0002.99
2022-10-29 23:29:00,,0829.2,5.00,0.00,28.6,27.2,00.0,37.3,30.4,05.8,0000.0,0007.56,0003.35,0002.99
2022-10-29 23:30:00,,0829.2,5.00,0.00,28.6,27.2,00.0,37.3,30.4,05.8,0000.0,0007.11,0003.35,0002.99
2022-10-29 23:31:00,,0829.3,5.00,0.00,28.6,27.2,00.0,37.3,30.4,05.8,0000.0,0005.44,0003.36,0002.98
2022-10-29 23:32:00,,0829.2,5.00,0.00,28.6,27.2,00.0,37.3,30.4,05.8,0000.0,0005.65,0003.36,0002.95
2022-10-29 23:33:00,,0829.2,5.00,0.00,28.6,27.2,00.0,37.3,30.4,05.8,0000.0,0005.93,0003.38,0002.95
2022-10-29 23:34:00,,0829.3,5.00,0.00,28.6,27.2,00.0,37.3,30.4,05.9,0000.0,0006.91,0003.38,0002.95
2022-10-29 23:35:00,,0829.3,5.00,0.00,28.6,27.2,00.0,37.3,30.4,05.9,0000.0,0006.80,0003.36,0002.95
2022-10-29 23:36:00,,0829.2,5.00,0.00,28.6,27.3,00.0,37.3,30.4,05.9,0000.0,0006.85,0003.38,0002.95
2022-10-29 23:37:00,,0829.2,5.00,0.00,28.6,27.3,00.0,37.4,30.5,06.0,0000.0,0006.80,0003.37,0002.94
2022-10-29 23:38:00,,0829.2,5.00,0.00,28.6,27.3,00.0,37.4,30.5,05.9,0000.0,0006.68,0003.36,0002.93
2022-10-29 23:39:00,,0829.2,5.00,0.00,28.6,27.3,00.0,37.4,30.5,05.9,0000.0,0006.63,0003.35,0002.93
2022-10-29 23:40:00,,0829.2,5.00,0.00,28.6,27.3,00.0,37.4,30.5,05.9,0000.0,0007.06,0003.34,0002.92
2022-10-29 23:41:00,,0829.2,5.00,0.00,28.6,27.3,00.0,37.4,30.5,05.9,0000.0,0007.04,0003.33,0002.91
2022-10-29 23:42:00,,0829.2,4.99,0.00,28.6,27.3,00.0,37.4,30.5,05.8,0000.0,0007.33,0003.33,0002.89
2022-10-29 23:43:00,,0829.3,5.01,0.00,28.6,27.3,00.0,37.4,30.5,05.8,0000.0,0007.18,0003.30,0002.87
2022-10-29 23:44:00,,0829.3,5.01,0.00,28.7,27.3,00.0,37.4,30.5,05.7,0000.0,0007.06,0003.29,0002.85
2022-10-29 23:45:00,,0829.2,4.98,0.00,28.7,27.3,00.0,37.4,30.5,05.7,0000.0,0006.13,0003.29,0002.84
2022-10-29 23:46:00,,0829.3,5.02,0.00,28.7,27.3,00.0,37.4,30.5,05.7,0000.0,0006.61,0003.28,0002.84
2022-10-29 23:47:00,,0829.2,4.98,0.00,28.7,27.4,00.0,37.4,30.5,05.7,0000.0,0007.72,0003.27,0002.85
2022-10-29 23:48:00,,0829.2,5.01,0.00,28.7,27.4,00.0,37.4,30.6,05.8,0000.0,0008.12,0003.28,0002.84
2022-10-29 23:49:00,,0829.2,5.01,0.00,28.7,27.3,00.0,37.4,30.6,05.7,0000.0,0008.43,0003.28,0002.83
2022-10-29 23:50:00,,0829.2,4.98,0.00,28.7,27.4,00.0,37.4,30.6,05.7,0000.0,0008.73,0003.30,0002.84
2022-10-29 23:51:00,,0829.3,5.00,0.00,28.7,27.4,00.0,37.5,30.6,05.7,0000.0,0008.55,0003.30,0002.84
2022-10-29 23:52:00,,0829.2,5.00,0.00,28.7,27.4,00.0,37.5,30.6,05.7,0000.0,0008.98,0003.29,0002.84
2022-10-29 23:53:00,,0829.2,5.00,0.00,28.7,27.4,00.0,37.5,30.6,05.7,0000.0,0009.80,0003.31,0002.85
2022-10-29 23:54:00,,0829.2,5.02,0.00,28.7,27.4,00.0,37.5,30.6,05.7,0000.0,0010.08,0003.33,0002.87
2022-10-29 23:55:00,,0829.3,4.98,0.00,28.7,27.4,00.0,37.5,30.6,05.7,0000.0,0010.34,0003.33,0002.88
2022-10-29 23:56:00,,0829.2,5.00,0.00,28.8,27.4,00.0,37.5,30.6,05.7,0000.0,0010.46,0003.35,0002.89
2022-10-29 23:57:00,,0829.3,5.00,0.00,28.8,27.4,00.0,37.5,30.6,05.7,0000.0,0010.72,0003.36,0002.87
2022-10-29 23:58:00,,0829.2,5.01,0.00,28.8,27.4,00.0,37.5,30.6,05.7,0000.0,0010.00,0003.35,0002.87
2022-10-29 23:59:00,,0829.3,5.00,0.00,28.8,27.4,00.0,37.5,30.6,05.7,0000.0,0009.69,0003.33,0002.87
